Rochester, NY

7:46 PM EDT on October 22, 2019 (GMT -0400)
Greater Rochester International

Weather History for KROC - May, 2019

Change the Weather History Date:

Thursday, May 30, 2019

  Actual Average Record
Temperature  
Mean Temperature 62 °F 61 °F  
Max Temperature 74 °F 72 °F 94 °F (1987)
Min Temperature 50 °F 51 °F 33 °F (1884)
Degree Days  
Heating Degree Days 3 5  
Month to date heating degree days 267 270  
Since 1 July heating degree days 6391 6573  
Cooling Degree Days 0 2  
Month to date cooling degree days 10 22  
Year to date cooling degree days 10 26  
Growing Degree Days 12 (Base 50)    
Moisture  
Dew Point 55 °F    
Average Humidity 75    
Maximum Humidity 93    
Minimum Humidity 57    
Precipitation  
Precipitation T in 0.09 in 1.77 in (1880)
Month to date precipitation 2.60 2.77  
Year to date precipitation 12.53 12.36  
Snow  
Snow 0.00 in 0.00 in 0.00 in ()
Month to date snowfall 0.0 0.4  
Since 1 July snowfall 97.1 99.5  
Snow Depth 0.00 in    
Sea Level Pressure  
Sea Level Pressure 29.71 in    
Wind  
Wind Speed 7 mph (WSW)    
Max Wind Speed 16 mph    
Max Gust Speed 22 mph    
Visibility 9 miles    
Events Rain    
T = Trace of Precipitation, MM = Missing Value Source: NWS Daily Summary

Daily Weather History Graph

Daily Weather History Graph

Search for Another Location

Airport or City:

Astronomy

May. 30, 2019 Rise Set
Actual Time 5:35 AM EDT 8:41 PM EDT
Civil Twilight 5:00 AM EDT 9:16 PM EDT
Nautical Twilight 4:16 AM EDT 10:00 PM EDT
Astronomical Twilight 3:24 AM EDT 10:53 PM EDT
Moon 3:48 AM EDT (5/30) 4:39 PM EDT (5/30)
Length of Visible Light 16h 15m
Length of Day
15h 06m
Waning Crescent, 15% of the Moon is Illuminated
May 30
Waning Crescent
Jun 3
New
Jun 10
First Quarter
Jun 17
Full
Jun 25
Last Quarter

Hourly Weather History & Observations

Time (EDT) Temp. Dew Point Humidity Pressure Visibility Wind Dir Wind Speed Gust Speed Precip Events Conditions
12:54 AM 53.1 °F 50.0 °F 89% 29.81 in 10.0 mi WSW 6.9 mph - N/A   Clear
1:54 AM 52.0 °F 48.9 °F 89% 29.79 in 7.0 mi West 4.6 mph - N/A   Partly Cloudy
2:54 AM 51.1 °F 48.9 °F 92% 29.79 in 5.0 mi WSW 4.6 mph - N/A   Mostly Cloudy
3:54 AM 52.0 °F 48.9 °F 89% 29.78 in 6.0 mi Calm Calm - N/A   Mostly Cloudy
4:54 AM 51.1 °F 48.9 °F 92% 29.78 in 6.0 mi SW 5.8 mph - N/A   Overcast
5:54 AM 52.0 °F 48.9 °F 89% 29.78 in 4.0 mi SW 3.5 mph - N/A   Overcast
6:54 AM 53.1 °F 50.0 °F 89% 29.79 in 6.0 mi SW 4.6 mph - N/A   Overcast
7:54 AM 55.9 °F 53.1 °F 90% 29.79 in 6.0 mi SW 5.8 mph - N/A   Overcast
8:54 AM 61.0 °F 55.0 °F 81% 29.77 in 9.0 mi SSW 6.9 mph - N/A   Mostly Cloudy
9:54 AM 64.0 °F 55.0 °F 73% 29.77 in 10.0 mi West 6.9 mph - N/A   Overcast
10:54 AM 66.0 °F 55.0 °F 68% 29.75 in 10.0 mi Variable 5.8 mph - N/A   Mostly Cloudy
11:54 AM 66.9 °F 54.0 °F 63% 29.74 in 10.0 mi SW 6.9 mph - N/A   Mostly Cloudy
12:54 PM 69.1 °F 54.0 °F 58% 29.72 in 10.0 mi South 4.6 mph - N/A   Mostly Cloudy
1:54 PM 72.0 °F 55.0 °F 55% 29.68 in 10.0 mi South 6.9 mph - N/A   Mostly Cloudy
2:54 PM 72.0 °F 55.9 °F 57% 29.68 in 10.0 mi WSW 8.1 mph - N/A   Mostly Cloudy
3:54 PM 72.0 °F 57.0 °F 59% 29.65 in 10.0 mi West 11.5 mph - N/A   Overcast
4:54 PM 72.0 °F 59.0 °F 64% 29.66 in 10.0 mi West 8.1 mph - 0.00 in Rain Light Rain
5:21 PM 71.1 °F 57.9 °F 63% 29.66 in 10.0 mi West 9.2 mph - 0.00 in   Overcast
5:42 PM 70.0 °F 57.9 °F 65% 29.65 in 10.0 mi West 11.5 mph - 0.00 in   Overcast
5:54 PM 71.1 °F 59.0 °F 66% 29.65 in 10.0 mi West 9.2 mph - 0.00 in   Overcast
6:27 PM 70.0 °F 61.0 °F 73% 29.63 in 10.0 mi SW 12.7 mph - N/A   Mostly Cloudy
6:54 PM 70.0 °F 61.0 °F 73% 29.63 in 10.0 mi West 12.7 mph - N/A   Mostly Cloudy
7:25 PM 70.0 °F 60.1 °F 71% 29.62 in 10.0 mi West 8.1 mph - N/A   Overcast
7:54 PM 69.1 °F 60.1 °F 73% 29.63 in 10.0 mi West 6.9 mph - N/A   Overcast
8:54 PM 66.0 °F 60.1 °F 81% 29.66 in 10.0 mi SW 9.2 mph - N/A   Mostly Cloudy
9:54 PM 64.9 °F 59.0 °F 81% 29.69 in 10.0 mi WSW 9.2 mph - N/A   Mostly Cloudy
10:54 PM 64.0 °F 57.9 °F 80% 29.70 in 10.0 mi West 10.4 mph - N/A   Mostly Cloudy
11:54 PM 62.1 °F 57.9 °F 86% 29.70 in 9.0 mi West 8.1 mph - N/A   Clear